User: anonymous   Login
Location: Unspecified
(0.0000°N, 0.0000°E)
Time: 06:09:49
(UTC+00:00)
Language:

DSCS III B-5 - Orbit

View from above orbital plane
View from above orbital plane
View from above satellite
View from above satellite

Ground track
Ground track

The orbit data is extracted from the following two-line orbital elements,

1 16117U 85092C   17285.60534874 0.00000000  00000-0  00000-0 0    03
2 16117  15.1737  14.1761 0001482 153.6113 206.4083  0.99327193    03
Epoch (UTC): 12 October 2017 14:31:42
Eccentricity: 0.0001482
inclination: 15.1737°
perigee height: 36047 km
apogee height: 36059 km
right ascension of ascending node: 14.1761°
argument of perigee: 153.6113°
revolutions per day: 0.99327193
mean anomaly at epoch: 206.4083°
orbit number at epoch: 0

The dashed part of the orbit path shows where the satellite is in the earth's shadow,  

DLR